Skip Page Navigation
NASA JPL Caltech
NASA Logo - Jet Propulsion Laboratory + View the NASA Portal
+ Center for Near-Earth Object Studies
JPL Home Earth Solar System Stars & Galaxies Technology
JPL Solar System Dynamics
BODIES ORBITS EPHEMERIDES TOOLS PHYSICAL DATA DISCOVERY FAQ SITE MAP
IMPORTANT: The SSD Announcement email list is now available. Major changes are coming in the near future, including possible hostname and/or URL changes. To be notified of such changes, subscribe to this email list.

Please visit this page for more details.


JPL Small-Body Database Browser
Search: [ help ]  
108315 (2001 JV5)
Classification: Main-belt Asteroid          SPK-ID: 2108315
Ephemeris | Orbit Diagram | Orbital Elements | Mission Design | Physical Parameters | Discovery Circumstances | Close-Approach Data ]

[ show orbit diagram ]
Orbital Elements at Epoch 2459000.5 (2020-May-31.0) TDB
Reference: JPL 19 (heliocentric ecliptic J2000)
 Element Value Uncertainty (1-sigma)   Units 
e .207323392612357 4.4639e-08  
a 2.667498336960263 2.1727e-08 au
q 2.114463531953841 1.214e-07 au
i 11.23133714612832 6.7385e-06 deg
node 213.9383763696242 2.2937e-05 deg
peri 294.2682257139322 2.7625e-05 deg
M 192.0082984093397 1.5187e-05 deg
tp 2459743.074431132906
(2022-Jun-12.57443113)
6.9722e-05 TDB
period 1591.309527057665
4.36
1.9442e-05
5.323e-08
d
yr
n .2262287718880442 2.764e-09 deg/d
Q 3.220533141966684 2.6231e-08 au
  Orbit Determination Parameters
   # obs. used (total)      382  
   data-arc span      7202 days (19.72 yr)  
   first obs. used      1999-11-04  
   last obs. used      2019-07-24  
   planetary ephem.      DE431  
   SB-pert. ephem.      SB431-N16  
   condition code      0  
   norm. resid. RMS      .57982  
   source      ORB  
   producer      Otto Matic  
   solution date      2020-Feb-24 03:06:00  

Additional Information
 Earth MOID = 1.15291 au 
 Jupiter MOID = 1.91365 au 
 T_jup = 3.325 
[ show covariance matrix ]

Ephemeris | Orbit Diagram | Orbital Elements | Mission Design | Physical Parameters | Discovery Circumstances | Close-Approach Data ]

Physical Parameter Table
Parameter Symbol Value Units Sigma Reference Notes
absolute magnitude H 15.8   n/a MPO436520  

108315 (2001 JV5)          Discovered 2001-May-15 by LONEOS at Anderson Mesa
Reference: 20051019/Numbers.arcLast Updated: 2005-10-26

[ show close-approach data ]
Ephemeris | Orbit Diagram | Orbital Elements | Mission Design | Physical Parameters | Discovery Circumstances | Close-Approach Data ]
ABOUT SSD CREDITS/AWARDS PRIVACY/COPYRIGHT GLOSSARY LINKS
FirstGov 2020-Apr-09 18:09 UT
(server date/time)  
NASA Home Page
Site Manager:   Ryan S. Park
Webmaster  Alan B. Chamberlin